Volver al catálogo

SL-8 R/B

ActivoLEO
NORAD 21108·ROCKET BODY·🇷🇺 Russia

Lanzado Feb 12, 1991 desde Plesetsk Cosmodrome

Loading…

Próximos Pases (próximas 24 horas)

TLE

ActualizadoSource: Space-Track

Época: Sep 14, 2026, 01:46 UTC

1 21108U 91009J   26257.07406362  .00000091  00000-0  98795-3 0  9992
2 21108  74.0525 132.1318 0175677 186.4424 349.1164 12.18518290476482

Sigue SL-8 R/B en tiempo real con AllMySat

Download on the App Store